Reidsville, NC

3:10 AM EDT on July 25, 2017 (GMT -0400)
Reidsville

Weather History for KSIF - February, 2014

Change the Weather History Date:

Wednesday, February 19, 2014

  Actual Average (KGSO) Record (KGSO)
Temperature  
Mean Temperature 52 °F -  
Max Temperature 70 °F 56 °F 74 °F (1939)
Min Temperature 34 °F 32 °F 9 °F (2015)
Degree Days  
Heating Degree Days 13    
Growing Degree Days 2 (Base 50)    
Moisture  
Dew Point 43 °F    
Average Humidity 76    
Maximum Humidity 99    
Minimum Humidity 46    
Precipitation  
Precipitation 0.19 in - - ()
Sea Level Pressure  
Sea Level Pressure 29.97 in    
Wind  
Wind Speed 3 mph (WSW)    
Max Wind Speed 15 mph    
Max Gust Speed 25 mph    
Visibility 9 miles    
Events Rain    
Averages and records for this station are not official NWS values.
T = Trace of Precipitation, MM = Missing Value Source: NWS Daily Summary

Daily Weather History Graph

Daily Weather History Graph

Search for Another Location

Airport or City:

Trip Planner

Search our weather history database for the weather conditions in past years. The results will help you decide how hot, cold, wet, or windy it might be!

Date:

Astronomy

Feb. 19, 2014 Rise Set
Actual Time 7:02 AM EST 6:04 PM EST
Civil Twilight 6:36 AM EST 6:30 PM EST
Nautical Twilight 6:06 AM EST 7:00 PM EST
Astronomical Twilight 5:36 AM EST 7:30 PM EST
Moon 10:46 PM EST (2/19) 9:16 AM EST (2/19)
Length of Visible Light 11h 54m
Length of Day
11h 01m
Waning Gibbous, 80% of the Moon is Illuminated
Feb 19
Waning Gibbous
Feb 22
Last Quarter
Mar 1
New
Mar 8
First Quarter
Mar 16
Full

Hourly Weather History & Observations

Time (EST) Temp. Windchill Dew Point Humidity Pressure Visibility Wind Dir Wind Speed Gust Speed Precip Events Conditions
12:15 AM 36.7 °F - 27.5 °F 69% 30.07 in 10.0 mi Calm Calm - N/A   Clear
12:35 AM 37.0 °F - 29.7 °F 75% 30.07 in 10.0 mi Calm Calm - N/A   Clear
12:55 AM 35.6 °F - 29.8 °F 80% 30.06 in 10.0 mi Calm Calm - N/A   Clear
1:15 AM 34.7 °F - 30.0 °F 83% 30.06 in 10.0 mi Calm Calm - N/A   Clear
1:35 AM 35.2 °F - 30.7 °F 84% 30.05 in 10.0 mi Calm Calm - N/A   Clear
1:55 AM 35.4 °F - 30.9 °F 84% 30.05 in 10.0 mi Calm Calm - N/A   Clear
2:15 AM 36.7 °F - 31.3 °F 81% 30.05 in 10.0 mi Calm Calm - N/A   Mostly Cloudy
2:35 AM 37.4 °F - 31.5 °F 79% 30.03 in 10.0 mi Calm Calm - N/A   Overcast
2:55 AM 37.8 °F - 31.8 °F 79% 30.01 in 10.0 mi Calm Calm - N/A   Overcast
3:15 AM 37.4 °F - 32.0 °F 81% 30.00 in 10.0 mi Calm Calm - N/A   Overcast
3:35 AM 38.3 °F - 32.9 °F 81% 29.98 in 10.0 mi Calm Calm - N/A   Overcast
3:55 AM 39.4 °F - 32.9 °F 78% 29.97 in 10.0 mi Calm Calm - N/A   Overcast
4:15 AM 39.2 °F - 33.1 °F 79% 29.96 in 10.0 mi Calm Calm - N/A   Mostly Cloudy
4:35 AM 39.2 °F - 34.0 °F 82% 29.96 in 10.0 mi Calm Calm - N/A   Mostly Cloudy
4:55 AM 40.3 °F - 34.9 °F 81% 29.96 in 10.0 mi Calm Calm - N/A   Overcast
5:15 AM 40.3 °F - 34.5 °F 80% 29.95 in 10.0 mi Calm Calm - N/A Rain Light Rain
5:35 AM 39.2 °F - 35.6 °F 87% 29.94 in 10.0 mi Calm Calm - N/A   Mostly Cloudy
5:55 AM 37.4 °F - 34.7 °F 90% 29.94 in 10.0 mi Calm Calm - N/A   Scattered Clouds
6:15 AM 38.7 °F 36.3 °F 35.2 °F 87% 29.94 in 10.0 mi SW 3.5 mph - N/A   Mostly Cloudy
6:35 AM 40.1 °F 38.0 °F 35.6 °F 84% 29.95 in 10.0 mi SSW 3.5 mph - N/A   Overcast
6:55 AM 42.8 °F 39.3 °F 36.1 °F 77% 29.94 in 10.0 mi SW 5.8 mph - N/A   Overcast
7:15 AM 43.2 °F 40.5 °F 38.1 °F 82% 29.94 in 10.0 mi WSW 4.6 mph - N/A   Overcast
7:35 AM 44.4 °F 42.9 °F 39.6 °F 83% 29.94 in 10.0 mi SW 3.5 mph - N/A   Overcast
7:55 AM 45.3 °F 44.0 °F 40.6 °F 84% 29.95 in 10.0 mi SW 3.5 mph - N/A   Overcast
8:15 AM 47.3 °F - 44.4 °F 90% 29.97 in 7.0 mi WSW 5.8 mph - N/A Rain Light Rain
8:35 AM 47.3 °F - 45.7 °F 94% 29.96 in 3.0 mi WSW 3.5 mph - 0.01 in Rain Rain
8:55 AM 46.9 °F - 45.9 °F 96% 29.96 in 2.0 mi SW 3.5 mph - 0.03 in Rain Rain
9:15 AM 46.8 °F - 46.0 °F 97% 29.94 in 0.8 mi SSW 5.8 mph - 0.15 in Rain Light Rain
9:35 AM 48.0 °F - 47.7 °F 99% 29.94 in 3.0 mi Calm Calm - 0.15 in   Overcast
9:55 AM 50.0 °F - 49.5 °F 98% 29.94 in 4.0 mi SW 4.6 mph - 0.15 in   Overcast
10:15 AM 49.8 °F - 49.3 °F 98% 29.95 in 4.0 mi SW 5.8 mph - N/A   Overcast
10:35 AM 50.0 °F - 49.3 °F 97% 29.94 in 4.0 mi SW 4.6 mph - N/A   Overcast
10:55 AM 50.5 °F - 50.0 °F 98% 29.94 in 5.0 mi SW 4.6 mph - N/A   Overcast
11:15 AM 51.4 °F - 50.9 °F 98% 29.94 in 5.0 mi SW 4.6 mph - N/A   Overcast
11:35 AM 52.9 °F - 52.0 °F 97% 29.93 in 5.0 mi SW 5.8 mph - N/A   Overcast
11:55 AM 53.4 °F - 52.2 °F 95% 29.93 in 5.0 mi WSW 6.9 mph - N/A   Overcast
12:15 PM 54.7 °F - 52.9 °F 94% 29.93 in 5.0 mi WSW 8.1 mph - N/A   Overcast
12:35 PM 56.5 °F - 54.1 °F 92% 29.93 in 7.0 mi SW 8.1 mph - N/A   Overcast
12:55 PM 58.5 °F - 54.3 °F 86% 29.93 in 7.0 mi WSW 12.7 mph 19.6 mph N/A   Overcast
1:15 PM 60.3 °F - 55.0 °F 83% 29.91 in 10.0 mi WSW 9.2 mph - N/A   Scattered Clouds
1:35 PM 61.7 °F - 55.0 °F 79% 29.90 in 10.0 mi WSW 6.9 mph - N/A   Clear
1:55 PM 63.7 °F - 55.4 °F 74% 29.89 in 10.0 mi SW 6.9 mph - N/A   Clear
2:15 PM 66.2 °F - 55.0 °F 67% 29.88 in 10.0 mi WSW 9.2 mph - N/A   Clear
2:35 PM 66.9 °F - 54.5 °F 64% 29.88 in 10.0 mi WSW 10.4 mph 21.9 mph N/A   Clear
2:55 PM 67.8 °F - 53.2 °F 60% 29.88 in 10.0 mi SW 15.0 mph 19.6 mph N/A   Clear
3:15 PM 68.9 °F - 51.4 °F 54% 29.88 in 10.0 mi WSW 10.4 mph 25.3 mph 0.01 in   Clear
3:35 PM 69.8 °F - 51.6 °F 52% 29.89 in 10.0 mi WSW 15.0 mph 20.7 mph 0.01 in   Clear
3:55 PM 69.8 °F - 50.7 °F 51% 29.89 in 10.0 mi West 13.8 mph 20.7 mph 0.01 in   Scattered Clouds
4:15 PM 70.7 °F - 50.4 °F 48% 29.90 in 10.0 mi WSW 15.0 mph 19.6 mph N/A   Clear
4:35 PM 70.3 °F - 49.6 °F 48% 29.90 in 10.0 mi WSW 13.8 mph 17.3 mph N/A   Clear
4:55 PM 69.8 °F - 50.0 °F 49% 29.91 in 10.0 mi WSW 6.9 mph - N/A   Clear
5:15 PM 69.8 °F - 48.4 °F 46% 29.92 in 10.0 mi West 5.8 mph - N/A   Clear
5:35 PM 68.9 °F - 47.3 °F 46% 29.94 in 10.0 mi West 3.5 mph - N/A   Clear
5:55 PM 67.6 °F - 45.9 °F 46% 29.95 in 10.0 mi West 3.5 mph - N/A   Clear
6:15 PM 64.4 °F - 45.5 °F 50% 29.96 in 10.0 mi West 3.5 mph - N/A   Clear
6:35 PM 60.4 °F - 45.0 °F 57% 29.96 in 10.0 mi WNW 3.5 mph - N/A   Clear
6:55 PM 55.2 °F - 44.6 °F 67% 29.98 in 10.0 mi Calm Calm - N/A   Clear
7:15 PM 52.5 °F - 44.2 °F 73% 29.99 in 10.0 mi Calm Calm - N/A   Clear
7:35 PM 50.5 °F - 43.2 °F 76% 30.01 in 10.0 mi Calm Calm - N/A   Clear
7:55 PM 47.7 °F - 42.8 °F 83% 30.01 in 10.0 mi Calm Calm - N/A   Clear
8:15 PM 55.9 °F - 41.9 °F 59% 30.02 in 10.0 mi WNW 3.5 mph - N/A   Clear
8:35 PM 57.2 °F - 41.4 °F 55% 30.03 in 10.0 mi Calm Calm - N/A   Clear
8:55 PM 50.9 °F - 41.0 °F 69% 30.04 in 10.0 mi Calm Calm - N/A   Clear
9:15 PM 48.9 °F - 40.5 °F 73% 30.05 in 10.0 mi Calm Calm - N/A   Clear
9:35 PM 47.7 °F - 41.0 °F 78% 30.06 in 10.0 mi WNW 3.5 mph - N/A   Clear
9:55 PM 45.1 °F 43.7 °F 39.9 °F 82% 30.07 in 10.0 mi North 3.5 mph - N/A   Clear
10:15 PM 47.7 °F - 40.5 °F 76% 30.07 in 10.0 mi NNE 4.6 mph - N/A   Clear
10:35 PM 48.6 °F - 39.9 °F 72% 30.08 in 10.0 mi North 4.6 mph - N/A   Clear
10:55 PM 51.6 °F - 38.8 °F 62% 30.08 in 10.0 mi North 3.5 mph - N/A   Clear
11:15 PM 47.1 °F - 38.1 °F 71% 30.08 in 10.0 mi North 3.5 mph - N/A   Clear
11:35 PM 47.1 °F - 37.9 °F 70% 30.07 in 10.0 mi NNE 3.5 mph - N/A   Clear
11:55 PM 45.5 °F - 37.6 °F 74% 30.08 in 10.0 mi Calm Calm - N/A   Clear